Temp
19 19 19 20 20 20 21 22 22 22 23 23 23 23 23 23 23 24 25 25 25 25 25 24 24 22 23 22 23 20 20 22 25 26 26 27 27 26 25 23 24 23 23 22 22
19 19 20 20 20 21 21 22 22 23 23 23 23 23 23 24 24 24 25 25 25 25 25 24 24 24 22 21 21 20 20 23 27 25 27 27 27 27 25 24 23 23 23 23 22
19 19 20 20 20 21 21 22 22 23 23 23 23 23 24 24 24 26 26 26 25 25 24 24 24 26 20 22 22 22 22 26 27 27 28 28 28 28 25 23 23 23 23 23 23
19 20 20 20 21 21 22 22 22 23 23 24 24 24 24 24 25 26 27 26 25 25 25 24 23 24 22 23 23 22 25 26 28 27 29 28 29 28 26 25 24 24 23 23 23
19 20 20 21 21 21 22 22 23 23 24 24 24 24 24 24 26 27 27 26 26 25 25 24 24 24 24 25 24 24 27 29 29 30 30 29 28 28 26 24 24 24 23 23 23
19 20 20 21 21 21 22 22 23 23 24 24 24 24 24 23 27 27 26 26 26 25 25 25 25 25 25 25 23 26 26 29 30 30 29 28 28 27 25 24 24 24 24 24 23
19 20 20 21 21 22 22 22 23 23 24 24 24 24 24 27 27 26 26 26 26 26 26 27 26 27 26 26 27 27 28 29 29 29 28 29 26 26 25 24 24 24 24 24 24
19 20 21 21 22 22 22 23 23 24 24 24 24 24 26 27 26 26 26 26 26 26 26 26 25 26 25 27 26 26 24 22 27 28 28 27 24 26 25 25 24 25 25 25 25
20 20 21 21 22 22 23 23 23 24 24 24 24 24 26 27 27 27 27 27 27 27 27 27 27 26 24 23 22 22 24 22 25 27 26 26 24 26 26 25 25 25 25 25 25
20 21 21 22 22 22 23 23 24 24 24 24 23 24 27 26 27 27 27 27 27 28 27 27 26 19 20 19 21 23 24 24 24 26 27 24 26 25 25 25 25 25 26 26 26
21 21 22 22 22 23 23 24 24 24 24 26 27 27 28 28 27 27 28 27 27 26 21 24 22 19 21 21 22 24 25 24 26 27 25 25 24 24 24 25 24 25 25 26 26
21 21 22 23 23 24 24 25 26 26 25 28 27 26 28 28 28 28 28 27 25 23 21 21 21 21 25 26 24 24 23 23 23 25 25 22 22 21 22 22 23 23 25 25 25
22 22 23 23 24 24 25 27 27 26 25 29 29 28 29 28 28 28 28 26 23 23 21 22 24 24 24 24 24 23 23 23 24 23 22 21 22 20 22 21 22 23 25 26 26
22 22 23 23 24 25 27 27 27 26 20 25 28 29 29 29 28 29 29 28 21 23 21 21 24 24 22 23 24 20 24 25 24 22 22 21 21 20 20 20 20 22 24 25 25
22 23 23 24 24 25 26 26 27 27 23 28 29 31 29 29 29 29 29 27 21 22 22 25 25 23 23 24 22 23 25 25 25 23 21 21 19 20 18 19 21 21 21 23 23
22 23 24 24 25 25 26 27 27 21 23 28 30 28 27 29 30 29 28 28 24 22 21 22 26 26 27 27 25 25 24 22 22 19 20 22 21 20 18 20 21 20 20 22 23
23 24 24 24 25 25 26 27 20 21 27 28 28 28 26 27 28 28 27 26 24 23 22 24 25 27 27 23 23 22 20 21 22 20 21 20 20 21 20 20 20 18 20 21 23
23 24 25 25 25 26 26 21 23 25 28 30 27 26 27 27 28 28 27 26 26 24 23 24 25 26 25 26 27 24 22 21 23 22 21 20 20 22 21 19 20 20 22 24 25
24 24 25 25 26 26 25 19 22 27 29 29 28 27 26 28 28 27 25 27 27 27 25 22 25 26 25 22 25 23 22 23 24 23 20 19 21 20 19 18 19 18 17 19 21
24 24 25 26 25 25 20 20 24 28 29 27 27 28 27 28 28 26 27 28 28 28 26 24 26 25 28 26 25 25 26 25 22 25 25 21 22 21 18 18 18 18 17 17 17
24 24 26 26 25 25 19 20 26 30 31 29 28 27 27 27 27 26 27 29 29 26 24 23 23 26 27 25 26 24 23 24 22 20 22 22 22 22 20 18 17 16 16 16 17
24 20 26 26 24 20 20 24 29 30 31 29 29 29 28 27 27 27 27 29 30 29 28 26 20 23 27 26 27 25 25 21 20 22 19 19 20 17 19 18 17 15 16 16 16
24 24 26 27 21 19 22 25 29 30 29 28 28 28 26 27 27 27 27 30 31 28 27 27 21 20 21 23 24 26 25 23 20 17 21 20 20 19 19 17 15 15 15 15 15
23 20 27 27 26 25 24 24 26 30 30 30 28 28 26 26 26 26 25 28 29 28 28 26 19 21 20 21 22 24 24 25 22 20 20 20 19 18 18 15 15 15 15 15 16
23 20 21 19 22 22 25 26 26 26 27 28 24 24 25 22 22 23 24 24 26 27 27 22 23 24 23 23 24 25 24 24 24 23 23 23 20 18 18 16 15 15 15 15 14
20 19 21 20 22 22 21 26 25 25 26 25 23 24 23 24 24 24 23 23 25 24 25 20 22 23 23 24 24 24 24 23 24 25 24 19 18 16 16 16 16 17 16 15 15
19 19 19 20 20 20 20 25 24 24 26 26 25 23 24 25 26 26 26 25 24 24 22 22 21 20 20 22 23 22 23 23 23 21 21 19 17 16 16 16 16 16 16 16 17
Height
1519 1517 1516 1515 1514 1513 1512 1512 1511 1512 1512 1513 1515 1516 1518 1519 1520 1520 1519 1519 1520 1519 1519 1520 1522 1523 1523 1524 1521 1523 1532 1533 1519 1517 1517 1510 1513 1522 1523 1524 1528 1529 1531 1536 1540
1519 1517 1515 1514 1513 1512 1512 1511 1511 1511 1512 1513 1514 1516 1517 1519 1519 1518 1519 1518 1520 1520 1520 1521 1520 1521 1515 1527 1526 1527 1534 1523 1512 1508 1514 1512 1511 1519 1525 1531 1532 1533 1538 1540 1542
1518 1517 1514 1514 1512 1511 1511 1511 1510 1511 1511 1512 1514 1515 1517 1518 1520 1517 1517 1518 1520 1522 1521 1522 1521 1519 1525 1527 1527 1527 1528 1514 1513 1512 1514 1513 1515 1516 1523 1531 1527 1532 1538 1542 1544
1517 1516 1513 1513 1512 1511 1510 1510 1510 1510 1511 1512 1513 1515 1517 1518 1521 1517 1517 1518 1519 1521 1522 1522 1522 1519 1525 1527 1526 1528 1515 1513 1513 1516 1512 1514 1514 1516 1517 1523 1526 1528 1533 1539 1543
1516 1515 1513 1512 1511 1510 1509 1509 1510 1510 1511 1512 1514 1515 1517 1518 1517 1516 1517 1519 1520 1521 1523 1523 1521 1522 1523 1524 1525 1528 1513 1510 1511 1511 1512 1514 1517 1516 1520 1525 1530 1533 1537 1539 1541
1514 1513 1512 1511 1510 1509 1509 1509 1509 1510 1511 1512 1514 1515 1517 1518 1516 1516 1517 1520 1522 1523 1523 1522 1522 1521 1522 1521 1525 1520 1519 1512 1512 1513 1513 1516 1517 1518 1527 1528 1532 1534 1536 1538 1540
1513 1512 1510 1509 1508 1508 1508 1509 1509 1510 1511 1512 1513 1515 1516 1515 1515 1516 1518 1520 1523 1523 1523 1523 1522 1521 1522 1521 1523 1519 1516 1511 1512 1512 1515 1514 1521 1523 1525 1528 1530 1533 1535 1538 1538
1511 1510 1509 1508 1507 1507 1508 1508 1509 1510 1511 1512 1513 1515 1513 1513 1514 1516 1518 1520 1521 1522 1522 1526 1526 1525 1525 1523 1522 1523 1522 1539 1518 1515 1517 1516 1536 1522 1524 1525 1527 1529 1531 1534 1536
1509 1508 1507 1507 1506 1507 1507 1508 1509 1510 1511 1512 1514 1514 1511 1511 1512 1516 1518 1518 1520 1521 1523 1525 1523 1524 1527 1532 1537 1533 1541 1541 1527 1517 1518 1521 1531 1522 1521 1522 1526 1528 1530 1532 1535
1507 1507 1506 1506 1506 1507 1507 1508 1510 1511 1512 1513 1514 1518 1511 1509 1511 1514 1516 1517 1520 1521 1523 1523 1523 1531 1531 1540 1556 1544 1538 1536 1532 1516 1515 1525 1525 1523 1529 1531 1530 1529 1528 1529 1530
1505 1505 1505 1505 1506 1507 1508 1510 1514 1515 1512 1507 1507 1507 1508 1510 1512 1514 1514 1518 1519 1520 1526 1522 1531 1548 1540 1541 1538 1533 1530 1531 1521 1517 1526 1526 1526 1528 1528 1528 1532 1533 1530 1530 1530
1503 1504 1504 1504 1506 1507 1509 1509 1510 1513 1508 1504 1505 1506 1506 1510 1511 1512 1515 1519 1518 1523 1524 1529 1539 1535 1530 1527 1530 1533 1534 1532 1527 1523 1521 1530 1533 1529 1526 1521 1524 1527 1526 1528 1531
1502 1503 1504 1505 1506 1508 1508 1508 1509 1510 1508 1501 1500 1502 1502 1506 1509 1510 1514 1516 1515 1522 1526 1529 1529 1529 1526 1529 1533 1527 1531 1529 1529 1526 1528 1537 1538 1533 1525 1521 1512 1515 1517 1520 1526
1501 1502 1504 1505 1510 1508 1508 1509 1509 1509 1520 1506 1498 1500 1503 1504 1508 1510 1511 1514 1519 1521 1521 1522 1516 1523 1529 1530 1520 1537 1511 1513 1526 1535 1549 1542 1558 1537 1522 1518 1514 1511 1513 1517 1522
1500 1501 1504 1506 1507 1508 1509 1507 1508 1508 1546 1498 1497 1497 1499 1503 1504 1508 1509 1510 1517 1519 1523 1517 1510 1523 1526 1522 1525 1522 1517 1519 1525 1535 1541 1540 1553 1526 1520 1520 1512 1510 1516 1517 1520
1500 1501 1503 1506 1508 1509 1506 1505 1507 1527 1544 1501 1492 1495 1500 1500 1501 1505 1508 1511 1513 1518 1519 1513 1512 1511 1507 1508 1513 1515 1518 1528 1530 1542 1558 1529 1535 1529 1524 1507 1509 1513 1512 1512 1514
1500 1502 1503 1506 1508 1507 1506 1506 1526 1541 1495 1500 1497 1494 1498 1500 1499 1502 1507 1511 1516 1529 1528 1510 1508 1503 1502 1519 1516 1518 1525 1551 1552 1557 1555 1534 1539 1518 1511 1505 1506 1512 1513 1516 1518
1501 1502 1504 1506 1508 1507 1507 1510 1531 1509 1500 1489 1492 1496 1502 1496 1495 1495 1502 1510 1502 1506 1519 1523 1531 1504 1498 1500 1506 1511 1518 1543 1553 1553 1544 1533 1541 1512 1503 1506 1508 1508 1509 1508 1504
1502 1503 1504 1506 1508 1509 1509 1530 1524 1502 1491 1491 1494 1505 1506 1496 1495 1496 1501 1498 1492 1493 1514 1524 1520 1495 1493 1497 1500 1515 1523 1499 1522 1523 1542 1535 1518 1508 1506 1512 1512 1516 1513 1507 1511
1504 1503 1503 1506 1508 1509 1512 1524 1508 1494 1490 1491 1507 1500 1510 1504 1500 1502 1500 1491 1490 1485 1485 1498 1516 1496 1491 1494 1495 1500 1496 1517 1523 1537 1536 1531 1520 1516 1510 1512 1513 1517 1513 1513 1518
1504 1503 1504 1505 1508 1509 1522 1516 1500 1493 1491 1494 1498 1502 1501 1503 1500 1505 1502 1491 1484 1487 1486 1493 1506 1506 1495 1502 1505 1506 1513 1510 1514 1528 1540 1538 1522 1493 1496 1498 1508 1513 1509 1512 1513
1503 1505 1504 1506 1510 1511 1514 1502 1495 1491 1490 1490 1490 1493 1497 1498 1499 1501 1501 1491 1485 1484 1493 1491 1511 1522 1505 1491 1489 1492 1503 1514 1537 1532 1531 1532 1523 1497 1495 1495 1503 1509 1508 1511 1512
1503 1503 1505 1507 1516 1515 1504 1499 1492 1490 1491 1492 1493 1493 1493 1496 1503 1497 1494 1486 1483 1484 1489 1489 1515 1536 1524 1506 1494 1497 1497 1502 1512 1524 1527 1536 1524 1499 1502 1506 1509 1507 1509 1512 1515
1504 1507 1505 1507 1506 1506 1505 1502 1498 1491 1491 1490 1492 1490 1494 1497 1495 1500 1499 1489 1485 1485 1486 1486 1510 1521 1540 1524 1511 1508 1499 1496 1504 1524 1522 1518 1511 1504 1503 1505 1506 1509 1512 1515 1518
1507 1511 1513 1513 1505 1504 1501 1498 1500 1500 1494 1493 1496 1499 1499 1511 1507 1507 1501 1496 1489 1490 1489 1494 1512 1506 1506 1504 1501 1501 1501 1498 1502 1500 1506 1495 1499 1492 1493 1500 1505 1508 1511 1515 1517
1511 1513 1511 1508 1506 1504 1502 1500 1503 1501 1498 1502 1505 1502 1500 1506 1505 1508 1504 1502 1498 1493 1494 1497 1511 1504 1509 1499 1496 1500 1496 1493 1491 1488 1488 1494 1499 1495 1496 1500 1502 1506 1509 1511 1512
1515 1515 1515 1510 1508 1509 1511 1504 1504 1500 1499 1500 1501 1501 1504 1500 1498 1498 1497 1496 1495 1496 1497 1498 1505 1513 1522 1501 1499 1512 1497 1492 1491 1488 1486 1501 1495 1495 1499 1500 1501 1503 1503 1501 1501
Wind_Speed
9 9 9 8 7 6 5 3 2 1 2 2 3 3 4 4 5 6 5 3 7 5 3 4 4 6 3 5 7 6 3 3 4 6 8 20 13 26 17 28 15 9 28 29 29
10 9 9 8 8 6 5 3 2 2 2 3 3 3 4 4 6 10 6 4 1 1 7 7 5 7 3 2 1 3 1 5 3 2 5 22 25 19 13 17 19 27 27 27 31
10 9 10 9 8 6 5 3 2 2 2 3 3 3 2 2 4 2 7 5 2 4 6 5 3 7 7 3 2 2 4 3 7 17 13 19 20 17 25 13 33 31 32 27 27
11 9 10 10 8 6 4 2 1 2 2 3 3 2 2 2 2 4 3 6 6 8 7 3 6 3 2 4 6 3 12 13 10 13 16 13 18 13 22 16 37 38 37 30 26
12 9 9 9 7 5 3 2 1 2 3 4 3 2 2 3 4 4 6 8 8 9 5 3 15 5 1 1 5 3 8 7 12 14 9 20 7 10 19 34 36 34 34 29 30
12 9 9 8 7 5 3 2 2 3 4 4 3 3 3 2 2 4 7 8 10 10 3 7 5 4 4 1 5 6 14 14 17 11 21 14 5 13 25 35 33 34 31 26 29
12 9 9 7 7 4 1 2 3 4 4 4 4 4 6 6 1 1 5 4 12 3 2 13 11 10 9 3 8 15 9 4 7 13 6 20 5 10 29 33 32 31 27 24 25
11 9 8 7 5 3 1 2 4 5 5 5 4 4 6 3 5 2 9 11 7 2 8 6 6 8 1 8 5 4 4 4 4 8 3 7 4 4 31 32 30 33 29 26 26
11 9 7 6 4 1 2 4 6 6 5 4 3 2 5 6 12 4 9 7 2 2 3 6 10 1 8 7 3 5 1 2 6 2 3 4 3 7 28 31 27 29 28 27 24
10 8 6 4 1 2 5 6 6 6 6 4 4 3 9 13 11 6 4 3 3 2 1 5 4 4 4 8 4 3 2 1 4 1 13 4 1 7 3 5 18 27 30 30 27
8 6 4 2 2 4 7 8 4 1 8 9 6 5 9 9 10 12 6 9 2 8 3 4 6 6 4 10 8 6 3 5 5 6 2 5 4 3 11 10 9 10 19 29 26
7 4 3 2 4 7 9 2 1 3 7 13 20 17 14 7 14 13 11 4 5 2 2 4 5 4 1 4 3 3 4 5 4 4 4 14 7 1 6 9 10 10 13 17 13
4 4 4 5 6 9 4 4 5 11 2 8 16 16 8 24 16 17 16 8 1 3 4 5 10 8 9 4 1 9 4 4 4 3 12 5 6 4 3 12 20 18 21 22 20
3 4 6 7 7 8 1 6 10 9 5 6 3 4 14 10 6 18 18 10 3 3 3 4 4 15 10 4 7 1 9 13 9 4 3 2 4 7 9 5 9 23 23 27 16
3 6 9 11 6 4 7 7 8 1 4 3 5 7 20 14 5 15 24 12 9 8 4 6 3 11 9 9 8 9 10 1 3 4 6 5 3 7 5 5 10 14 8 11 6
4 7 12 11 8 5 3 5 8 6 4 3 10 7 7 6 3 28 24 4 6 4 2 8 4 3 5 4 20 2 4 3 3 3 3 5 4 4 5 6 5 11 9 8 15
4 8 12 9 4 3 6 7 5 3 4 5 6 5 7 6 3 11 11 11 6 2 6 3 3 4 1 9 5 6 4 2 3 1 6 2 5 9 5 3 14 17 15 7 4
5 8 13 10 4 5 9 5 2 5 3 1 6 4 8 7 7 7 15 12 10 6 3 4 5 7 4 5 5 2 6 5 6 5 3 2 6 6 4 14 20 28 24 18 15
5 5 10 13 3 2 4 4 6 3 3 4 5 4 5 4 5 7 10 16 11 16 9 7 6 2 5 5 5 3 5 8 3 2 3 5 4 4 2 3 13 14 19 21 20
3 1 6 13 7 2 4 4 4 4 2 6 4 2 3 3 3 5 1 4 7 5 8 7 2 6 2 4 5 6 1 4 3 2 4 3 3 5 9 8 2 4 18 20 11
3 3 8 14 9 2 2 6 5 2 6 3 1 1 3 1 2 4 3 4 4 6 9 4 3 5 4 4 4 5 4 2 2 5 5 2 5 6 11 11 14 11 15 16 16
2 1 10 12 3 0 2 5 5 3 8 2 1 1 2 4 3 5 4 2 2 2 3 2 5 0 4 3 4 5 5 5 4 8 2 4 5 7 7 13 21 18 19 17 13
4 2 15 14 2 2 7 6 6 1 1 2 3 2 3 4 5 3 5 7 6 4 6 3 1 3 10 9 4 4 1 5 4 3 1 4 5 3 6 9 11 17 18 17 17
3 3 2 13 7 2 3 5 6 9 1 1 1 5 6 6 2 4 9 5 4 4 5 6 3 6 6 8 3 7 9 4 4 2 3 6 4 5 7 7 14 14 13 11 11
7 3 5 3 4 6 0 2 6 6 7 16 9 8 3 7 6 6 4 9 10 8 7 5 2 1 4 6 2 2 5 9 4 7 4 5 10 11 13 12 12 14 12 10 10
4 5 7 6 11 6 4 3 5 5 4 4 6 7 6 4 4 3 3 3 3 6 4 3 2 1 3 6 6 3 7 7 7 4 2 7 2 4 20 21 20 17 16 16 15
7 3 3 6 7 6 5 3 6 4 5 7 5 4 4 1 5 8 11 9 7 3 2 1 3 2 6 6 5 5 7 9 6 2 4 6 4 9 10 11 20 23 24 26 23
Wind_Direction
350 347 341 340 334 335 335 332 311 271 238 207 186 188 190 198 227 242 249 85 104 72 133 138 63 10 344 86 118 94 49 281 233 137 119 116 115 156 149 138 149 212 151 156 164
348 344 335 337 333 334 333 331 296 259 232 210 201 207 207 224 247 250 165 165 40 101 138 63 73 115 100 85 112 96 164 252 124 55 101 129 134 149 131 145 113 121 145 149 154
347 344 331 333 333 334 329 325 287 238 225 216 212 214 218 233 285 242 203 199 199 148 157 140 121 139 106 209 233 175 226 232 212 156 155 139 153 137 131 144 147 148 152 158 158
344 345 330 328 333 333 321 311 263 226 205 214 216 215 220 212 153 4 186 149 162 165 171 173 181 142 133 198 202 264 246 259 108 221 173 158 160 155 154 170 158 152 157 162 167
340 344 330 324 331 327 314 289 222 206 188 202 204 201 219 257 270 320 165 163 168 173 183 144 164 161 185 213 156 224 280 311 115 145 109 117 61 158 129 148 154 154 159 172 178
335 339 327 322 324 321 305 257 214 183 178 189 192 198 214 276 84 336 185 169 174 171 148 206 229 82 118 159 154 224 260 273 152 141 105 107 101 110 141 149 153 158 168 181 188
330 331 323 321 319 315 283 216 197 170 172 176 191 205 239 237 132 104 176 150 156 150 32 353 242 352 339 337 354 310 290 124 153 133 129 113 35 123 153 154 157 167 175 190 197
325 322 318 319 318 310 262 182 174 160 172 174 186 218 243 341 207 267 155 131 171 245 299 312 303 309 155 313 7 359 50 7 337 28 111 81 237 124 158 158 166 174 180 197 207
318 313 314 315 317 296 146 157 154 157 161 165 181 238 260 189 186 137 168 156 144 138 273 316 298 23 59 15 12 344 241 273 311 119 197 85 208 228 173 168 172 178 188 199 206
311 305 308 307 300 151 143 146 142 150 157 161 201 285 224 196 192 185 181 204 249 226 32 34 51 76 46 35 299 291 188 162 248 220 1 346 319 313 122 97 181 187 194 204 200
300 294 293 281 176 153 142 130 125 202 221 209 204 212 320 186 170 199 197 225 161 70 47 357 61 88 102 203 239 287 278 181 221 358 343 236 217 274 118 90 357 291 220 209 203
289 274 252 196 161 155 158 198 359 329 296 259 247 248 280 253 176 201 209 129 71 186 83 34 108 134 97 22 183 237 232 248 7 75 108 25 342 343 55 162 217 253 228 215 218
272 234 194 166 160 162 189 53 7 344 276 284 247 244 189 172 174 200 166 128 77 97 161 146 156 124 85 87 141 259 242 200 140 19 70 42 309 327 251 227 217 219 213 208 228
235 202 171 157 159 180 130 38 359 342 59 282 197 214 181 167 180 185 185 158 50 262 26 279 137 158 142 163 183 328 249 257 123 96 150 134 273 243 224 248 273 243 218 216 211
196 189 166 154 156 174 346 336 344 261 44 184 198 176 171 170 181 189 197 170 160 181 153 257 254 155 205 228 177 231 347 358 149 188 133 211 158 262 44 270 247 250 246 242 233
189 186 178 180 158 360 336 335 341 52 260 218 183 140 122 216 194 172 187 175 130 93 290 257 59 299 220 38 188 70 4 328 63 77 328 231 128 255 205 216 121 48 33 338 312
177 185 188 182 130 357 329 339 46 128 295 186 166 147 162 219 240 170 176 205 174 149 240 329 291 203 144 127 159 172 114 31 337 120 224 148 116 252 169 143 132 117 102 129 298
151 178 196 187 113 27 3 51 82 244 233 44 153 129 175 191 245 165 179 209 239 208 110 165 298 198 176 177 213 48 140 171 206 218 235 337 227 254 102 139 138 147 151 154 159
118 168 198 170 138 8 357 61 216 271 335 23 50 102 302 303 196 218 182 207 220 207 195 167 249 275 189 148 165 143 177 191 210 13 110 202 279 281 147 155 115 141 137 137 166
27 328 181 181 172 203 69 238 254 279 55 46 62 84 38 312 19 147 220 290 252 212 183 216 81 229 79 104 259 200 351 354 16 259 274 264 262 235 197 165 94 220 113 122 136
26 346 167 140 150 220 158 235 273 302 34 84 267 326 293 71 136 13 312 279 15 34 74 100 99 281 135 185 178 6 15 284 140 145 215 202 251 322 186 167 154 145 110 111 116
358 46 157 160 128 120 204 208 299 341 359 305 307 65 359 9 40 48 359 256 1 68 93 287 128 57 264 243 207 148 165 118 96 308 293 178 286 344 127 143 142 131 121 123 126
356 326 172 182 143 285 291 287 233 127 38 34 24 46 56 19 10 15 344 289 152 135 160 199 42 25 343 347 5 51 358 148 146 110 264 96 271 41 71 88 119 121 124 126 131
38 39 153 208 270 198 300 311 346 356 37 11 46 44 19 348 56 333 349 338 325 61 98 93 104 150 192 219 211 312 341 5 115 114 207 206 211 237 207 133 117 118 118 125 139
32 34 11 298 315 319 254 304 342 356 28 24 14 14 301 26 22 11 350 348 19 31 24 80 33 18 238 237 208 234 328 328 335 251 185 246 192 211 184 140 129 121 116 124 135
48 13 348 298 326 7 356 340 68 349 20 20 56 17 46 109 147 306 19 31 272 348 24 12 289 147 279 290 328 319 316 324 322 307 121 127 270 325 115 130 136 154 163 161 165
43 51 330 319 344 36 324 351 47 26 349 62 39 39 17 350 29 7 339 307 233 218 263 167 122 59 274 275 341 352 285 283 283 359 264 186 160 132 122 147 170 176 179 175 172